Location: G�ndlingen
(48.0142°N, 7.6396°E)
Time: 01:24:15
(UTC+00:00)

Nadezhda 1 Rocket - Pass Details

Date: 05 July 2020
Orbit: 942 x 1005 km, 83.0° (Epoch: 04 August)

Event Time Altitude Azimuth Distance (km) Brightness Sun altitude
Rises 20:23:47 0° 349° (N) 3,741 8.1 -7.4°
Reaches altitude 10° 20:26:20 10° 348° (NNW) 2,790 7.4 -7.7°
Maximum altitude 20:32:44 74° 265° (W) 1,048 4.3 -8.5°
Drops below altitude 10° 20:39:04 10° 182° (S) 2,763 5.9 -9.2°
Enters shadow 20:41:02 - 180° (S) 3,501 6.4 -9.4°
